Find Starlink 32502

NORAD ID: 62116 Int'l Des: 2024-222 Owner: SPXS Country: US Constellation: starlink operational
LEOCIRCULAR

Current View

Loading 3D Globe...

About Starlink 32502

Starlink 32502 (NORAD 62116) is a starlink constellation satellite (v2 mini) launched Nov 27, 2024 by SPXS of US. It operates in LEO, CIRCULAR orbit with a mass of 730.00 kg.

About Starlink 32502

Description loading...

Upcoming Passes

Passes for default location (London). Set your location on the main map for personalized predictions.

Altitude History

Loading altitude history...

Two-Line Element Set

1 62116U 24222C 26171.31986381 .00019171 00000-0 70398-3 0 9993
2 62116 42.9990 276.6934 0002723 285.8266 74.2286 15.27597073 88505
Epoch: Jun 20, 2026 • Age: 20 hours

Current Status

Altitude 482.0 km
Velocity 7.63 km/s
Sub-Earth Point 0.54°N, 58.12°W
Launch Date Nov 27, 2024
Age 1.5 years
Type internet

Technical Details

Classification Payload
Mass 730.00 kg
Dry Mass 700.00 kg
Total Mass 730.00 kg
Length 0.30 m
Diameter 4.10 m
Span 29.00 m
Shape Box + pan
Manufacturer SPXS
Bus Type Starlink V2M
Phase Status In Orbit
Owner/State SPXS/US

Most Searched